Regional Weather Roundup
Issued by NWS

Home | Current Version | Previous Version | Graphics & Text | Print | Product List | Glossary On
Versions: 1 2 3 4 5 6 7 8 9 10 11 12 13 14 15 16 17 18 19 20 21 22 23 24 25 26 27 28 29 30 31 32 33 34 35 36 37 38 39 40 41 42 43 44 45 46 47 48 49 50
402
ASUS45 KABQ 242201
RWRNM
NEW MEXICO REGIONAL WEATHER ROUNDUP
NATIONAL WEATHER SERVICE ALBUQUERQUE NM
400 PM MDT WED MAY 24 2017

NOTE: "FAIR" MEANS FEW OR NO CLOUDS BELOW 12,000 FEET AGL WITH NO
       SIGNIFICANT WEATHER OR OBSTRUCTIONS TO VISION.

      THIS PRODUCT IS RELEASED AS TWO VERSIONS.  ONE VERSION NEAR
      THE TOP OF THE HOUR CONTAINING PRELIMINARY DATA FROM ALBUQUERQUE
      AND OTHER STATIONS.  A FINAL VERSION WITH ADDITIONAL DATA IS
      ISSUED ABOUT 10 MINUTES AFTER THE HOUR.

NMZ501-503-504-510>518-242300-
NORTHWEST PLATEAU/NORTHCENTRAL MOUNTAINS

CITY           SKY/WX    TMP DP  RH WIND       PRES   REMARKS
FARMINGTON     FAIR      84  28  13 W18       29.83F
LOS ALAMOS     FAIR      77  23  13 W13G29    29.96F
SANTA FE       FAIR      84  25  11 W21G32    29.87F
TAOS           FAIR      79  27  14 W24G30    29.92F
ANGEL FIRE     FAIR      68  29  23 SW23      29.99F

$$
NMZ402-403-502-505>509-242300-
WESTCENTRAL MOUNTAINS/SOUTHWEST MOUNTAINS

CITY           SKY/WX    TMP DP  RH WIND       PRES   REMARKS
GALLUP         FAIR      82  23  11 W20G35    29.95F
GRANTS         FAIR      83  20   9 NW20G26   29.96F
SILVER CITY    FAIR      88  21   8 W20G29    29.94F

$$
NMZ407-409-411-412-242300-
SOUTHERN DESERTS

CITY           SKY/WX    TMP DP  RH WIND       PRES   REMARKS
DEMING         FAIR      94  16   6 W20G30    29.85F
LAS CRUCES     FAIR      91  26   9 NW7       29.86F
HOLLOMAN AFB   FAIR      88  33  14 S9G18     29.86F
ALAMOGORDO     FAIR      86  32  14 W3        29.86F
T OR C         FAIR      91  24   9 VRB5      29.81F

$$
NMZ519>523-242300-
CENTRAL VALLEYS/CENTRAL HIGHLANDS

CITY           SKY/WX    TMP DP  RH WIND       PRES   REMARKS
ALBUQUERQUE    FAIR      87  22   9 NW9       29.83F
DOUBLE EAGLE   MOSUNNY   88  28  11 W17G28    29.88F
MORIARTY ARPT    N/A    N/A N/A N/A MISG        N/A
CLINES CORNERS FAIR      79  28  15 W22G33    29.94F
BELEN          FAIR      91  18   7 W22G30    29.83F
SOCORRO        NOT AVBL

$$
NMZ524>526-539-540-242300-
SOUTHCENTRAL MOUNTAINS

CITY           SKY/WX    TMP DP  RH WIND       PRES   REMARKS
RUIDOSO        NOT AVBL

$$
NMZ527>531-242300-
NORTHEAST HIGHLANDS/NORTHEAST PLAINS

CITY           SKY/WX    TMP DP  RH WIND       PRES   REMARKS
LAS VEGAS      FAIR      81  24  12 W15G23    29.87F
RATON          FAIR      82  27  13 W14G24    29.78F
CLAYTON        FAIR      79  37  22 VRB6      29.75F

$$
NMZ532>537-242300-
EASTCENTRAL PLAINS

CITY           SKY/WX    TMP DP  RH WIND       PRES   REMARKS
SANTA ROSA     FAIR      89  31  12 W18G30    29.73F
TUCUMCARI      FAIR      86  33  15 S5G18     29.70F
CANNON AFB     FAIR      83  27  13 SW9       29.78F
CLOVIS AIRPORT FAIR      82  34  17 SW12G20   29.77F

$$
NMZ028-029-538-242300-
SOUTHEAST PLAINS

CITY           SKY/WX    TMP DP  RH WIND       PRES   REMARKS
ROSWELL        FAIR      91  34  13 S12G17    29.74F
ARTESIA        FAIR      90  37  15 SE5G15    29.75F
CARLSBAD       FAIR      90  34  13 VRB6      29.73F
HOBBS          SUNNY     84  28  13 SW12G18   29.81F


$$




USA.gov is the U.S. government's official web portal to all federal, state and local government web resources and services.